Time,TemperatureF,DewpointF,PressureIn,WindDirection,WindDirectionDegrees,WindSpeedMPH,WindSpeedGustMPH,Humidity,HourlyPrecipIn,Conditions,Clouds,dailyrainin,SoftwareType,DateUTC
2013-10-04 00:31:00,67.3,66.4,30.06,South,169,1.0,6.0,97,0.00,,---,0.00,VWS V14.01,2013-10-04 04:31:00,
2013-10-04 00:32:00,67.4,66.5,30.06,SSW,212,2.0,5.0,97,0.00,,---,0.00,VWS V14.01,2013-10-04 04:32:00,
2013-10-04 00:33:00,67.3,66.4,30.06,WSW,257,2.0,5.0,97,0.00,,---,0.00,VWS V14.01,2013-10-04 04:33:00,
2013-10-04 00:34:00,67.4,66.5,30.06,West,280,3.0,5.0,97,0.00,,---,0.00,VWS V14.01,2013-10-04 04:34:00,
2013-10-04 00:35:00,67.4,66.5,30.06,SE,134,4.0,5.0,97,0.00,,---,0.00,VWS V14.01,2013-10-04 04:35:00,
2013-10-04 00:36:00,67.4,66.2,30.06,ESE,117,2.0,5.0,96,0.00,,---,0.00,VWS V14.01,2013-10-04 04:36:00,
2013-10-04 00:37:00,67.4,66.2,30.06,SW,224,1.0,5.0,96,0.00,,---,0.00,VWS V14.01,2013-10-04 04:37:00,
2013-10-04 00:38:00,67.4,66.2,30.06,SW,224,2.0,5.0,96,0.00,,---,0.00,VWS V14.01,2013-10-04 04:38:00,
2013-10-04 00:42:00,67.4,66.2,30.06,SW,224,3.0,5.0,96,0.00,,---,0.00,VWS V14.01,2013-10-04 04:42:00,
2013-10-04 00:43:00,67.3,66.1,30.06,SW,233,3.0,5.0,96,0.00,,---,0.00,VWS V14.01,2013-10-04 04:43:00,
2013-10-04 00:45:00,67.3,66.1,30.06,East,101,3.0,5.0,96,0.00,,---,0.00,VWS V14.01,2013-10-04 04:45:00,
2013-10-04 00:46:00,67.3,66.1,30.06,West,281,2.0,5.0,96,0.00,,---,0.00,VWS V14.01,2013-10-04 04:46:00,
2013-10-04 00:50:00,67.3,66.1,30.06,West,267,2.0,6.0,96,0.00,,---,0.00,VWS V14.01,2013-10-04 04:50:00,
2013-10-04 00:56:00,67.3,66.1,30.06,SW,217,2.0,6.0,96,0.00,,---,0.00,VWS V14.01,2013-10-04 04:56:00,
2013-10-04 00:57:00,67.3,66.1,30.06,SSW,200,2.0,6.0,96,0.00,,---,0.00,VWS V14.01,2013-10-04 04:57:00,
2013-10-04 00:59:00,67.3,66.1,30.06,SSW,194,2.0,6.0,96,0.00,,---,0.00,VWS V14.01,2013-10-04 04:59:00,
2013-10-04 01:01:00,67.3,66.1,30.06,South,169,2.0,6.0,96,0.00,,---,0.00,VWS V14.01,2013-10-04 05:01:00,
2013-10-04 01:02:00,67.3,66.1,30.06,SSW,200,1.0,3.0,96,0.00,,---,0.00,VWS V14.01,2013-10-04 05:02:00,
2013-10-04 01:05:00,67.3,66.1,30.06,SSW,202,5.0,6.0,96,0.00,,---,0.00,VWS V14.01,2013-10-04 05:05:00,
2013-10-04 01:09:00,67.3,66.1,30.06,SSW,210,2.0,6.0,96,0.00,,---,0.00,VWS V14.01,2013-10-04 05:09:00,
2013-10-04 01:10:00,67.3,66.1,30.06,SSE,160,1.0,6.0,96,0.00,,---,0.00,VWS V14.01,2013-10-04 05:10:00,
2013-10-04 01:14:00,67.3,66.1,30.06,South,175,2.0,6.0,96,0.00,,---,0.00,VWS V14.01,2013-10-04 05:14:00,
2013-10-04 01:15:00,67.2,66.0,30.06,SSW,197,3.0,6.0,96,0.00,,---,0.00,VWS V14.01,2013-10-04 05:15:00,
2013-10-04 01:16:00,67.2,66.0,30.06,West,260,2.0,6.0,96,0.00,,---,0.00,VWS V14.01,2013-10-04 05:16:00,
2013-10-04 01:19:00,67.3,66.1,30.06,SSE,158,2.0,6.0,96,0.00,,---,0.00,VWS V14.01,2013-10-04 05:19:00,
2013-10-04 01:24:00,67.2,66.0,30.06,South,169,2.0,6.0,96,0.00,,---,0.00,VWS V14.01,2013-10-04 05:24:00,
2013-10-04 01:25:00,67.2,66.0,30.06,SSE,153,3.0,6.0,96,0.00,,---,0.00,VWS V14.01,2013-10-04 05:25:00,
2013-10-04 01:26:00,67.2,66.0,30.06,South,176,3.0,6.0,96,0.00,,---,0.00,VWS V14.01,2013-10-04 05:26:00,
2013-10-04 01:31:00,67.2,66.0,30.06,SE,142,3.0,3.0,96,0.00,,---,0.00,VWS V14.01,2013-10-04 05:31:00,
2013-10-04 01:36:00,67.1,65.9,30.06,East,91,2.0,3.0,96,0.00,,---,0.00,VWS V14.01,2013-10-04 05:36:00,
2013-10-04 01:41:00,67.1,65.9,30.06,South,186,2.0,5.0,96,0.00,,---,0.00,VWS V14.01,2013-10-04 05:41:00,
2013-10-04 01:46:00,67.2,66.0,30.06,SSE,163,1.0,5.0,96,0.00,,---,0.00,VWS V14.01,2013-10-04 05:46:00,
2013-10-04 01:51:00,67.2,66.0,30.06,WSW,246,2.0,5.0,96,0.00,,---,0.00,VWS V14.01,2013-10-04 05:51:00,
2013-10-04 01:56:00,67.3,66.1,30.06,SSW,210,3.0,5.0,96,0.00,,---,0.00,VWS V14.01,2013-10-04 05:56:00,
2013-10-04 02:01:00,67.2,66.0,30.05,SE,145,1.0,5.0,96,0.00,,---,0.00,VWS V14.01,2013-10-04 06:01:00,
2013-10-04 02:06:00,67.3,66.1,30.05,SE,136,1.0,5.0,96,0.00,,---,0.00,VWS V14.01,2013-10-04 06:06:00,
2013-10-04 02:11:00,67.3,66.1,30.05,South,191,3.0,5.0,96,0.00,,---,0.00,VWS V14.01,2013-10-04 06:11:00,
2013-10-04 02:16:00,67.3,66.1,30.05,SW,214,2.0,5.0,96,0.00,,---,0.00,VWS V14.01,2013-10-04 06:16:00,
2013-10-04 02:21:00,67.2,66.0,30.05,SSE,162,2.0,5.0,96,0.00,,---,0.00,VWS V14.01,2013-10-04 06:21:00,
2013-10-04 02:26:00,67.2,66.0,30.05,SSW,207,1.0,5.0,96,0.00,,---,0.00,VWS V14.01,2013-10-04 06:26:00,
2013-10-04 02:31:00,67.2,66.0,30.05,SW,226,2.0,3.0,96,0.00,,---,0.00,VWS V14.01,2013-10-04 06:31:00,
2013-10-04 02:36:00,67.1,65.9,30.05,SW,223,5.0,5.0,96,0.00,,---,0.00,VWS V14.01,2013-10-04 06:36:00,
2013-10-04 02:41:00,67.1,65.9,30.04,South,189,2.0,5.0,96,0.00,,---,0.00,VWS V14.01,2013-10-04 06:41:00,
2013-10-04 02:46:00,67.1,65.9,30.04,SSW,203,3.0,5.0,96,0.00,,---,0.00,VWS V14.01,2013-10-04 06:46:00,
2013-10-04 02:51:00,67.1,66.2,30.04,SE,131,4.0,6.0,97,0.00,,---,0.00,VWS V14.01,2013-10-04 06:51:00,
2013-10-04 02:56:00,67.1,66.2,30.04,SSW,194,4.0,6.0,97,0.00,,---,0.00,VWS V14.01,2013-10-04 06:56:00,
2013-10-04 03:01:00,67.1,66.2,30.04,WSW,250,2.0,3.0,97,0.00,,---,0.00,VWS V14.01,2013-10-04 07:01:00,
2013-10-04 03:06:00,67.1,66.2,30.04,SSW,195,1.0,5.0,97,0.00,,---,0.00,VWS V14.01,2013-10-04 07:06:00,
2013-10-04 03:11:00,67.1,65.9,30.04,SSW,197,4.0,5.0,96,0.00,,---,0.00,VWS V14.01,2013-10-04 07:11:00,
2013-10-04 03:16:00,67.0,65.8,30.03,South,184,3.0,7.0,96,0.00,,---,0.00,VWS V14.01,2013-10-04 07:16:00,
2013-10-04 03:21:00,67.0,65.8,30.03,WSW,255,2.0,7.0,96,0.00,,---,0.00,VWS V14.01,2013-10-04 07:21:00,
2013-10-04 03:26:00,67.0,65.8,30.03,SW,231,5.0,7.0,96,0.00,,---,0.00,VWS V14.01,2013-10-04 07:26:00,
2013-10-04 03:31:00,66.9,65.7,30.04,SE,146,4.0,4.0,96,0.00,,---,0.00,VWS V14.01,2013-10-04 07:31:00,
2013-10-04 03:36:00,66.9,65.7,30.04,SE,146,5.0,6.0,96,0.00,,---,0.00,VWS V14.01,2013-10-04 07:36:00,
2013-10-04 03:41:00,66.9,65.7,30.04,SW,219,4.0,8.0,96,0.00,,---,0.00,VWS V14.01,2013-10-04 07:41:00,
2013-10-04 03:46:00,66.9,65.7,30.03,WSW,254,4.0,8.0,96,0.00,,---,0.00,VWS V14.01,2013-10-04 07:46:00,
2013-10-04 03:51:00,66.9,65.7,30.03,ESE,117,4.0,8.0,96,0.00,,---,0.00,VWS V14.01,2013-10-04 07:51:00,
2013-10-04 03:56:00,66.9,65.7,30.04,SSW,208,4.0,8.0,96,0.00,,---,0.00,VWS V14.01,2013-10-04 07:56:00,
2013-10-04 04:01:00,66.9,65.7,30.04,SSW,205,2.0,4.0,96,0.00,,---,0.00,VWS V14.01,2013-10-04 08:01:00,
2013-10-04 04:06:00,66.8,65.6,30.04,East,82,3.0,6.0,96,0.00,,---,0.00,VWS V14.01,2013-10-04 08:06:00,
2013-10-04 04:12:00,66.8,65.6,30.04,SSW,193,3.0,6.0,96,0.00,,---,0.00,VWS V14.01,2013-10-04 08:12:00,
2013-10-04 04:17:00,66.8,65.6,30.04,SSW,203,2.0,6.0,96,0.00,,---,0.00,VWS V14.01,2013-10-04 08:17:00,
2013-10-04 04:22:00,66.8,65.3,30.04,SSW,195,1.0,6.0,95,0.00,,---,0.00,VWS V14.01,2013-10-04 08:22:00,
2013-10-04 04:27:00,66.8,65.3,30.04,SW,217,2.0,6.0,95,0.00,,---,0.00,VWS V14.01,2013-10-04 08:27:00,
2013-10-04 04:32:00,66.7,65.2,30.04,South,174,1.0,5.0,95,0.00,,---,0.00,VWS V14.01,2013-10-04 08:32:00,
2013-10-04 04:37:00,66.7,65.2,30.04,SSW,201,2.0,5.0,95,0.00,,---,0.00,VWS V14.01,2013-10-04 08:37:00,
2013-10-04 04:42:00,66.7,65.2,30.04,SSW,192,3.0,7.0,95,0.00,,---,0.00,VWS V14.01,2013-10-04 08:42:00,
2013-10-04 04:47:00,66.8,65.3,30.04,SSW,206,2.0,7.0,95,0.00,,---,0.00,VWS V14.01,2013-10-04 08:47:00,
2013-10-04 04:52:00,66.8,65.3,30.04,SSW,203,6.0,8.0,95,0.00,,---,0.00,VWS V14.01,2013-10-04 08:52:00,
2013-10-04 04:57:00,66.8,65.3,30.04,South,188,6.0,8.0,95,0.00,,---,0.00,VWS V14.01,2013-10-04 08:57:00,
2013-10-04 05:02:00,66.9,65.4,30.04,WSW,251,2.0,6.0,95,0.00,,---,0.00,VWS V14.01,2013-10-04 09:02:00,
2013-10-04 05:07:00,66.9,65.4,30.04,SW,220,3.0,8.0,95,0.00,,---,0.00,VWS V14.01,2013-10-04 09:07:00,
2013-10-04 05:12:00,66.9,65.4,30.04,SSW,199,3.0,8.0,95,0.00,,---,0.00,VWS V14.01,2013-10-04 09:12:00,
2013-10-04 05:17:00,66.8,65.3,30.04,South,186,1.0,8.0,95,0.00,,---,0.00,VWS V14.01,2013-10-04 09:17:00,
2013-10-04 05:22:00,66.8,65.3,30.04,ESE,108,2.0,8.0,95,0.00,,---,0.00,VWS V14.01,2013-10-04 09:22:00,
2013-10-04 05:27:00,66.8,65.3,30.04,SE,131,0.0,8.0,95,0.00,,---,0.00,VWS V14.01,2013-10-04 09:27:00,
2013-10-04 05:32:00,66.8,65.3,30.04,South,181,1.0,4.0,95,0.00,,---,0.00,VWS V14.01,2013-10-04 09:32:00,
2013-10-04 05:37:00,66.8,65.3,30.04,SW,219,4.0,5.0,95,0.00,,---,0.00,VWS V14.01,2013-10-04 09:37:00,
2013-10-04 05:42:00,66.7,65.2,30.05,SW,218,4.0,6.0,95,0.00,,---,0.00,VWS V14.01,2013-10-04 09:42:00,
2013-10-04 05:47:00,66.7,65.2,30.05,SW,224,2.0,6.0,95,0.00,,---,0.00,VWS V14.01,2013-10-04 09:47:00,
2013-10-04 05:52:00,66.6,65.1,30.05,SSW,208,1.0,6.0,95,0.00,,---,0.00,VWS V14.01,2013-10-04 09:52:00,
2013-10-04 05:57:00,66.6,65.1,30.05,South,174,2.0,6.0,95,0.00,,---,0.00,VWS V14.01,2013-10-04 09:57:00,
2013-10-04 06:02:00,66.6,65.1,30.05,SW,222,2.0,3.0,95,0.00,,---,0.00,VWS V14.01,2013-10-04 10:02:00,
2013-10-04 06:07:00,66.4,64.6,30.05,SW,217,1.0,3.0,94,0.00,,---,0.00,VWS V14.01,2013-10-04 10:07:00,
2013-10-04 06:12:00,66.3,64.5,30.05,SSW,200,0.0,3.0,94,0.00,,---,0.00,VWS V14.01,2013-10-04 10:12:00,
2013-10-04 06:17:00,66.2,64.4,30.05,SSW,203,0.0,3.0,94,0.00,,---,0.00,VWS V14.01,2013-10-04 10:17:00,
2013-10-04 06:22:00,66.2,64.4,30.05,SW,236,1.0,3.0,94,0.00,,---,0.00,VWS V14.01,2013-10-04 10:22:00,
2013-10-04 06:27:00,66.2,64.4,30.05,SW,228,1.0,3.0,94,0.00,,---,0.00,VWS V14.01,2013-10-04 10:27:00,
2013-10-04 06:32:00,66.1,64.3,30.05,SE,140,2.0,3.0,94,0.00,,---,0.00,VWS V14.01,2013-10-04 10:32:00,
2013-10-04 06:37:00,66.1,64.3,30.05,SW,226,1.0,5.0,94,0.00,,---,0.00,VWS V14.01,2013-10-04 10:37:00,
2013-10-04 06:42:00,66.2,64.4,30.05,SSW,203,0.0,5.0,94,0.00,,---,0.00,VWS V14.01,2013-10-04 10:42:00,
2013-10-04 06:47:00,66.2,64.1,30.05,South,184,0.0,5.0,93,0.00,,---,0.00,VWS V14.01,2013-10-04 10:47:00,
2013-10-04 06:52:00,66.3,64.5,30.05,SSW,205,1.0,5.0,94,0.00,,---,0.00,VWS V14.01,2013-10-04 10:52:00,
2013-10-04 06:57:00,66.5,64.7,30.05,SSW,202,3.0,5.0,94,0.00,,---,0.00,VWS V14.01,2013-10-04 10:57:00,
2013-10-04 07:02:00,66.6,64.8,30.05,WSW,239,1.0,2.0,94,0.00,,---,0.00,VWS V14.01,2013-10-04 11:02:00,
2013-10-04 07:07:00,66.7,64.9,30.05,SE,133,1.0,4.0,94,0.00,,---,0.00,VWS V14.01,2013-10-04 11:07:00,
2013-10-04 07:12:00,66.9,65.1,30.05,ESE,110,0.0,4.0,94,0.00,,---,0.00,VWS V14.01,2013-10-04 11:12:00,
2013-10-04 07:17:00,67.1,65.3,30.06,SW,224,1.0,4.0,94,0.00,,---,0.00,VWS V14.01,2013-10-04 11:17:00,
2013-10-04 07:22:00,67.2,65.4,30.06,SW,229,0.0,4.0,94,0.00,,---,0.00,VWS V14.01,2013-10-04 11:22:00,
2013-10-04 07:27:00,67.3,65.5,30.06,SW,228,0.0,4.0,94,0.00,,---,0.00,VWS V14.01,2013-10-04 11:27:00,
2013-10-04 07:32:00,67.5,65.7,30.06,SW,227,0.0,0.0,94,0.00,,---,0.00,VWS V14.01,2013-10-04 11:32:00,
2013-10-04 07:37:00,67.9,66.1,30.06,SW,227,0.0,0.0,94,0.00,,---,0.00,VWS V14.01,2013-10-04 11:37:00,
2013-10-04 07:42:00,68.2,66.4,30.06,SW,228,0.0,0.0,94,0.00,,---,0.00,VWS V14.01,2013-10-04 11:42:00,
2013-10-04 07:47:00,68.7,66.9,30.06,SW,227,0.0,0.0,94,0.00,,---,0.00,VWS V14.01,2013-10-04 11:47:00,
2013-10-04 07:52:00,69.0,66.6,30.06,SW,227,0.0,0.0,92,0.00,,---,0.00,VWS V14.01,2013-10-04 11:52:00,
2013-10-04 07:57:00,69.2,66.8,30.06,SSW,210,0.0,0.0,92,0.00,,---,0.00,VWS V14.01,2013-10-04 11:57:00,
2013-10-04 08:02:00,69.9,67.5,30.06,SSW,204,0.0,0.0,92,0.00,,---,0.00,VWS V14.01,2013-10-04 12:02:00,
2013-10-04 08:07:00,70.4,67.7,30.06,SSW,208,0.0,0.0,91,0.00,,---,0.00,VWS V14.01,2013-10-04 12:07:00,
2013-10-04 08:12:00,70.6,67.5,30.06,South,189,2.0,2.0,90,0.00,,---,0.00,VWS V14.01,2013-10-04 12:12:00,
2013-10-04 08:17:00,70.7,67.6,30.06,WSW,242,0.0,2.0,90,0.00,,---,0.00,VWS V14.01,2013-10-04 12:17:00,
2013-10-04 08:22:00,71.1,68.0,30.06,SW,219,0.0,2.0,90,0.00,,---,0.00,VWS V14.01,2013-10-04 12:22:00,
2013-10-04 08:27:00,71.5,68.1,30.06,SSE,163,1.0,2.0,89,0.00,,---,0.00,VWS V14.01,2013-10-04 12:27:00,
2013-10-04 08:32:00,71.8,68.4,30.06,SSW,199,0.0,2.0,89,0.00,,---,0.00,VWS V14.01,2013-10-04 12:32:00,
2013-10-04 08:37:00,72.2,68.4,30.06,SSE,150,1.0,2.0,88,0.00,,---,0.00,VWS V14.01,2013-10-04 12:37:00,
2013-10-04 08:42:00,72.4,68.7,30.06,WSW,254,0.0,2.0,88,0.00,,---,0.00,VWS V14.01,2013-10-04 12:42:00,
2013-10-04 08:47:00,72.6,68.5,30.06,SW,223,0.0,3.0,87,0.00,,---,0.00,VWS V14.01,2013-10-04 12:47:00,
2013-10-04 08:52:00,72.6,68.5,30.07,South,181,1.0,3.0,87,0.00,,---,0.00,VWS V14.01,2013-10-04 12:52:00,
2013-10-04 08:57:00,72.4,68.3,30.07,SW,214,1.0,4.0,87,0.00,,---,0.00,VWS V14.01,2013-10-04 12:57:00,
2013-10-04 09:02:00,72.5,68.4,30.07,SW,234,2.0,4.0,87,0.00,,---,0.00,VWS V14.01,2013-10-04 13:02:00,
2013-10-04 09:07:00,72.5,68.8,30.07,SW,215,0.0,4.0,88,0.00,,---,0.00,VWS V14.01,2013-10-04 13:07:00,
2013-10-04 09:12:00,72.9,68.8,30.07,SW,220,0.0,4.0,87,0.00,,---,0.00,VWS V14.01,2013-10-04 13:12:00,
2013-10-04 09:17:00,72.9,68.5,30.07,SSE,150,1.0,4.0,86,0.00,,---,0.00,VWS V14.01,2013-10-04 13:17:00,
2013-10-04 09:22:00,73.2,69.1,30.06,SE,139,0.0,4.0,87,0.00,,---,0.00,VWS V14.01,2013-10-04 13:22:00,
2013-10-04 09:27:00,73.5,69.1,30.06,SW,222,1.0,4.0,86,0.00,,---,0.00,VWS V14.01,2013-10-04 13:27:00,
2013-10-04 09:32:00,73.7,68.9,30.07,South,174,3.0,3.0,85,0.00,,---,0.00,VWS V14.01,2013-10-04 13:32:00,
2013-10-04 09:37:00,73.9,69.1,30.07,SW,219,1.0,4.0,85,0.00,,---,0.00,VWS V14.01,2013-10-04 13:37:00,
2013-10-04 09:43:00,74.2,69.4,30.06,SSE,148,1.0,4.0,85,0.00,,---,0.00,VWS V14.01,2013-10-04 13:43:00,
2013-10-04 09:48:00,74.7,69.6,30.06,SSE,167,2.0,4.0,84,0.00,,---,0.00,VWS V14.01,2013-10-04 13:48:00,
2013-10-04 09:53:00,74.7,69.2,30.06,South,172,1.0,4.0,83,0.00,,---,0.00,VWS V14.01,2013-10-04 13:53:00,
2013-10-04 09:58:00,74.7,69.2,30.06,SSW,210,0.0,4.0,83,0.00,,---,0.00,VWS V14.01,2013-10-04 13:58:00,
2013-10-04 10:03:00,74.9,69.4,30.06,SSW,204,0.0,2.0,83,0.00,,---,0.00,VWS V14.01,2013-10-04 14:03:00,
2013-10-04 10:08:00,74.9,69.0,30.06,SW,220,2.0,4.0,82,0.00,,---,0.00,VWS V14.01,2013-10-04 14:08:00,
2013-10-04 10:13:00,75.0,69.1,30.06,SW,217,2.0,4.0,82,0.00,,---,0.00,VWS V14.01,2013-10-04 14:13:00,
2013-10-04 10:18:00,75.0,69.1,30.07,South,183,1.0,4.0,82,0.00,,---,0.00,VWS V14.01,2013-10-04 14:18:00,
2013-10-04 10:23:00,75.1,69.2,30.07,SW,233,3.0,5.0,82,0.00,,---,0.00,VWS V14.01,2013-10-04 14:23:00,
2013-10-04 10:28:00,75.0,69.1,30.06,SSE,157,3.0,5.0,82,0.00,,---,0.00,VWS V14.01,2013-10-04 14:28:00,
2013-10-04 10:33:00,74.9,69.0,30.06,SSW,210,1.0,4.0,82,0.00,,---,0.00,VWS V14.01,2013-10-04 14:33:00,
2013-10-04 10:38:00,75.1,69.2,30.06,WSW,258,1.0,6.0,82,0.00,,---,0.00,VWS V14.01,2013-10-04 14:38:00,
2013-10-04 10:43:00,75.3,69.1,30.06,SSE,165,2.0,6.0,81,0.00,,---,0.00,VWS V14.01,2013-10-04 14:43:00,
2013-10-04 10:48:00,75.3,69.1,30.06,SW,224,4.0,6.0,81,0.00,,---,0.00,VWS V14.01,2013-10-04 14:48:00,
2013-10-04 10:53:00,75.4,69.2,30.06,South,173,1.0,6.0,81,0.00,,---,0.00,VWS V14.01,2013-10-04 14:53:00,
2013-10-04 10:58:00,75.4,69.2,30.06,SW,225,3.0,6.0,81,0.00,,---,0.00,VWS V14.01,2013-10-04 14:58:00,
2013-10-04 11:03:00,75.3,69.1,30.06,SW,226,3.0,4.0,81,0.00,,---,0.00,VWS V14.01,2013-10-04 15:03:00,
2013-10-04 11:08:00,75.3,69.1,30.06,SW,235,4.0,5.0,81,0.00,,---,0.00,VWS V14.01,2013-10-04 15:08:00,
2013-10-04 11:13:00,75.4,69.2,30.06,NNW,348,2.0,5.0,81,0.00,,---,0.00,VWS V14.01,2013-10-04 15:13:00,
2013-10-04 11:18:00,75.3,69.1,30.06,SW,218,4.0,8.0,81,0.00,,---,0.00,VWS V14.01,2013-10-04 15:18:00,
2013-10-04 11:20:00,75.2,69.3,30.06,SE,146,3.0,8.0,82,0.00,,---,0.00,VWS V14.01,2013-10-04 15:20:00,
2013-10-04 11:25:00,75.4,69.2,30.06,South,174,4.0,8.0,81,0.00,,---,0.00,VWS V14.01,2013-10-04 15:25:00,
2013-10-04 11:30:00,75.5,69.3,30.06,North,350,5.0,8.0,81,0.00,,---,0.00,VWS V14.01,2013-10-04 15:30:00,
2013-10-04 11:35:00,75.3,69.4,30.05,WSW,245,2.0,7.0,82,0.00,,---,0.00,VWS V14.01,2013-10-04 15:35:00,
2013-10-04 11:40:00,75.3,69.1,30.05,West,267,3.0,8.0,81,0.00,,---,0.00,VWS V14.01,2013-10-04 15:40:00,
2013-10-04 11:45:00,75.5,69.3,30.05,West,276,3.0,8.0,81,0.00,,---,0.00,VWS V14.01,2013-10-04 15:45:00,
2013-10-04 11:50:00,75.5,69.3,30.05,ESE,121,3.0,8.0,81,0.00,,---,0.00,VWS V14.01,2013-10-04 15:50:00,
2013-10-04 11:55:00,75.6,69.4,30.05,SW,228,3.0,8.0,81,0.00,,---,0.00,VWS V14.01,2013-10-04 15:55:00,
2013-10-04 12:00:00,75.9,69.7,30.05,SW,219,3.0,8.0,81,0.00,,---,0.00,VWS V14.01,2013-10-04 16:00:00,
2013-10-04 12:05:00,76.1,69.5,30.05,SW,229,2.0,5.0,80,0.00,,---,0.00,VWS V14.01,2013-10-04 16:05:00,
2013-10-04 12:10:00,76.4,69.4,30.05,SSW,205,2.0,5.0,79,0.00,,---,0.00,VWS V14.01,2013-10-04 16:10:00,
2013-10-04 12:15:00,76.5,69.5,30.05,SSW,196,3.0,5.0,79,0.00,,---,0.00,VWS V14.01,2013-10-04 16:15:00,
2013-10-04 12:20:00,76.6,69.2,30.04,WSW,251,2.0,5.0,78,0.00,,---,0.00,VWS V14.01,2013-10-04 16:20:00,
2013-10-04 12:25:00,76.6,69.6,30.05,South,191,3.0,5.0,79,0.00,,---,0.00,VWS V14.01,2013-10-04 16:25:00,
2013-10-04 12:30:00,76.4,69.4,30.04,SSW,193,2.0,5.0,79,0.00,,---,0.00,VWS V14.01,2013-10-04 16:30:00,
2013-10-04 12:35:00,76.7,69.3,30.04,ESE,105,3.0,5.0,78,0.00,,---,0.00,VWS V14.01,2013-10-04 16:35:00,
2013-10-04 12:40:00,76.8,69.4,30.04,SSW,193,3.0,6.0,78,0.00,,---,0.00,VWS V14.01,2013-10-04 16:40:00,
2013-10-04 12:45:00,76.7,69.3,30.04,East,94,4.0,6.0,78,0.00,,---,0.00,VWS V14.01,2013-10-04 16:45:00,
2013-10-04 12:50:00,77.0,69.6,30.03,SSW,205,2.0,6.0,78,0.00,,---,0.00,VWS V14.01,2013-10-04 16:50:00,
2013-10-04 12:55:00,76.9,69.5,30.04,South,175,4.0,6.0,78,0.00,,---,0.00,VWS V14.01,2013-10-04 16:55:00,
2013-10-04 13:00:00,76.8,69.8,30.03,WSW,250,2.0,6.0,79,0.00,,---,0.00,VWS V14.01,2013-10-04 17:00:00,
2013-10-04 13:05:00,76.8,69.4,30.03,South,180,2.0,5.0,78,0.00,,---,0.00,VWS V14.01,2013-10-04 17:05:00,
2013-10-04 13:10:00,76.9,69.9,30.03,South,180,1.0,5.0,79,0.00,,---,0.00,VWS V14.01,2013-10-04 17:10:00,
2013-10-04 13:15:00,77.1,69.7,30.03,WSW,249,3.0,5.0,78,0.00,,---,0.00,VWS V14.01,2013-10-04 17:15:00,
2013-10-04 13:20:00,77.2,69.8,30.02,SW,215,3.0,6.0,78,0.00,,---,0.00,VWS V14.01,2013-10-04 17:20:00,
2013-10-04 13:25:00,77.1,69.7,30.02,WSW,250,4.0,6.0,78,0.00,,---,0.00,VWS V14.01,2013-10-04 17:25:00,
2013-10-04 13:30:00,76.9,69.5,30.01,West,270,2.0,7.0,78,0.00,,---,0.00,VWS V14.01,2013-10-04 17:30:00,
2013-10-04 13:35:00,76.6,69.6,30.01,South,186,4.0,8.0,79,0.00,,---,0.00,VWS V14.01,2013-10-04 17:35:00,
2013-10-04 14:00:00,76.2,69.6,30.00,SW,231,3.0,8.0,80,0.00,,---,0.00,VWS V14.01,2013-10-04 18:00:00,
2013-10-04 14:05:00,76.2,69.6,30.00,SSW,212,3.0,7.0,80,0.00,,---,0.00,VWS V14.01,2013-10-04 18:05:00,
2013-10-04 14:11:00,76.3,69.7,30.00,WSW,245,4.0,7.0,80,0.00,,---,0.00,VWS V14.01,2013-10-04 18:11:00,
2013-10-04 14:16:00,76.2,69.6,30.00,North,358,3.0,7.0,80,0.00,,---,0.00,VWS V14.01,2013-10-04 18:16:00,
2013-10-04 14:21:00,76.0,69.4,30.00,SSE,166,4.0,7.0,80,0.00,,---,0.00,VWS V14.01,2013-10-04 18:21:00,
2013-10-04 14:26:00,76.1,69.8,30.00,WSW,238,5.0,7.0,81,0.00,,---,0.00,VWS V14.01,2013-10-04 18:26:00,
2013-10-04 14:31:00,76.0,69.8,30.00,West,269,4.0,7.0,81,0.00,,---,0.00,VWS V14.01,2013-10-04 18:31:00,
2013-10-04 14:36:00,75.9,69.7,30.00,WNW,293,4.0,6.0,81,0.00,,---,0.00,VWS V14.01,2013-10-04 18:36:00,
2013-10-04 14:41:00,76.0,69.8,30.00,West,262,2.0,6.0,81,0.00,,---,0.00,VWS V14.01,2013-10-04 18:41:00,
2013-10-04 14:46:00,76.1,69.8,30.00,NNE,19,2.0,8.0,81,0.00,,---,0.00,VWS V14.01,2013-10-04 18:46:00,
2013-10-04 14:51:00,76.1,69.8,30.00,ENE,70,1.0,8.0,81,0.00,,---,0.00,VWS V14.01,2013-10-04 18:51:00,
2013-10-04 14:56:00,75.9,69.7,30.00,West,274,3.0,8.0,81,0.00,,---,0.00,VWS V14.01,2013-10-04 18:56:00,
2013-10-04 15:01:00,76.0,69.8,30.00,ENE,72,4.0,8.0,81,0.00,,---,0.00,VWS V14.01,2013-10-04 19:01:00,
2013-10-04 15:06:00,76.2,69.9,30.00,ESE,108,2.0,6.0,81,0.00,,---,0.00,VWS V14.01,2013-10-04 19:06:00,
2013-10-04 15:11:00,76.2,69.6,30.00,East,82,3.0,7.0,80,0.00,,---,0.00,VWS V14.01,2013-10-04 19:11:00,
2013-10-04 15:16:00,76.0,69.4,30.00,ENE,75,6.0,7.0,80,0.00,,---,0.00,VWS V14.01,2013-10-04 19:16:00,
2013-10-04 15:21:00,75.7,69.8,30.00,ENE,72,5.0,8.0,82,0.00,,---,0.00,VWS V14.01,2013-10-04 19:21:00,
2013-10-04 15:26:00,75.5,69.6,30.00,SW,217,4.0,9.0,82,0.00,,---,0.00,VWS V14.01,2013-10-04 19:26:00,
2013-10-04 15:31:00,75.5,69.6,30.00,South,184,3.0,9.0,82,0.00,,---,0.00,VWS V14.01,2013-10-04 19:31:00,
2013-10-04 15:36:00,75.4,69.2,30.00,East,89,5.0,8.0,81,0.00,,---,0.00,VWS V14.01,2013-10-04 19:36:00,
2013-10-04 15:41:00,75.2,69.3,30.00,SE,140,8.0,8.0,82,0.00,,---,0.00,VWS V14.01,2013-10-04 19:41:00,
2013-10-04 15:46:00,74.9,69.4,30.00,South,190,3.0,9.0,83,0.00,,---,0.00,VWS V14.01,2013-10-04 19:46:00,
2013-10-04 15:51:00,74.6,69.1,30.00,SSE,162,4.0,9.0,83,0.00,,---,0.00,VWS V14.01,2013-10-04 19:51:00,
2013-10-04 15:56:00,74.4,69.3,30.00,West,262,4.0,9.0,84,0.00,,---,0.00,VWS V14.01,2013-10-04 19:56:00,
2013-10-04 16:01:00,74.4,69.3,30.00,SSE,167,3.0,9.0,84,0.00,,---,0.00,VWS V14.01,2013-10-04 20:01:00,
2013-10-04 16:06:00,74.5,69.0,30.00,West,269,5.0,7.0,83,0.00,,---,0.00,VWS V14.01,2013-10-04 20:06:00,
2013-10-04 16:11:00,74.5,69.0,30.00,South,190,2.0,7.0,83,0.00,,---,0.00,VWS V14.01,2013-10-04 20:11:00,
2013-10-04 16:16:00,74.4,68.9,30.00,SW,229,1.0,7.0,83,0.00,,---,0.00,VWS V14.01,2013-10-04 20:16:00,
2013-10-04 16:21:00,74.5,69.3,30.00,SE,144,3.0,7.0,84,0.00,,---,0.00,VWS V14.01,2013-10-04 20:21:00,
2013-10-04 16:26:00,74.7,69.2,30.00,SSE,161,2.0,7.0,83,0.00,,---,0.00,VWS V14.01,2013-10-04 20:26:00,
2013-10-04 16:31:00,74.6,69.1,29.99,NNE,32,2.0,7.0,83,0.00,,---,0.00,VWS V14.01,2013-10-04 20:31:00,
2013-10-04 16:36:00,74.8,69.3,29.99,West,264,0.0,6.0,83,0.00,,---,0.00,VWS V14.01,2013-10-04 20:36:00,
2013-10-04 16:41:00,74.8,68.9,29.99,SSE,158,3.0,6.0,82,0.00,,---,0.00,VWS V14.01,2013-10-04 20:41:00,
2013-10-04 16:46:00,74.8,68.9,29.99,SW,222,3.0,6.0,82,0.00,,---,0.00,VWS V14.01,2013-10-04 20:46:00,
2013-10-04 16:51:00,74.7,68.8,29.99,South,183,3.0,6.0,82,0.00,,---,0.00,VWS V14.01,2013-10-04 20:51:00,
2013-10-04 16:56:00,74.4,68.9,29.99,SW,226,3.0,7.0,83,0.00,,---,0.00,VWS V14.01,2013-10-04 20:56:00,
2013-10-04 17:01:00,74.2,68.7,29.99,South,178,4.0,7.0,83,0.00,,---,0.00,VWS V14.01,2013-10-04 21:01:00,
2013-10-04 17:06:00,73.9,68.4,29.99,SE,129,4.0,7.0,83,0.00,,---,0.00,VWS V14.01,2013-10-04 21:06:00,
2013-10-04 17:11:00,73.7,68.6,29.99,SSE,157,3.0,7.0,84,0.00,,---,0.00,VWS V14.01,2013-10-04 21:11:00,
2013-10-04 17:16:00,73.6,68.8,29.99,South,182,3.0,7.0,85,0.00,,---,0.00,VWS V14.01,2013-10-04 21:16:00,
2013-10-04 17:21:00,73.3,68.5,29.99,West,277,1.0,7.0,85,0.00,,---,0.00,VWS V14.01,2013-10-04 21:21:00,
2013-10-04 17:26:00,73.1,68.3,29.99,SSW,195,5.0,8.0,85,0.00,,---,0.00,VWS V14.01,2013-10-04 21:26:00,
2013-10-04 17:31:00,72.8,68.4,29.99,East,90,6.0,6.0,86,0.00,,---,0.00,VWS V14.01,2013-10-04 21:31:00,
2013-10-04 17:36:00,72.5,68.1,29.99,East,98,5.0,8.0,86,0.00,,---,0.00,VWS V14.01,2013-10-04 21:36:00,
2013-10-04 17:41:00,72.3,68.2,29.99,ESE,113,3.0,10.0,87,0.00,,---,0.00,VWS V14.01,2013-10-04 21:41:00,
2013-10-04 17:46:00,72.1,68.0,29.99,NW,315,5.0,10.0,87,0.00,,---,0.00,VWS V14.01,2013-10-04 21:46:00,
2013-10-04 17:51:00,71.9,68.2,29.99,SE,141,8.0,10.0,88,0.00,,---,0.00,VWS V14.01,2013-10-04 21:51:00,
2013-10-04 17:56:00,71.7,68.0,29.99,SW,217,5.0,11.0,88,0.00,,---,0.00,VWS V14.01,2013-10-04 21:56:00,
2013-10-04 18:01:00,71.5,68.1,30.00,ESE,106,8.0,10.0,89,0.00,,---,0.00,VWS V14.01,2013-10-04 22:01:00,
2013-10-04 18:06:00,71.4,68.0,30.00,ESE,120,2.0,10.0,89,0.00,,---,0.00,VWS V14.01,2013-10-04 22:06:00,
2013-10-04 18:11:00,71.1,68.0,30.00,WNW,299,3.0,10.0,90,0.00,,---,0.00,VWS V14.01,2013-10-04 22:11:00,
2013-10-04 18:16:00,70.9,67.8,30.00,NNW,340,3.0,10.0,90,0.00,,---,0.00,VWS V14.01,2013-10-04 22:16:00,
2013-10-04 18:21:00,70.7,67.6,30.00,SSE,154,5.0,10.0,90,0.00,,---,0.00,VWS V14.01,2013-10-04 22:21:00,
2013-10-04 18:26:00,70.5,67.8,30.00,SW,214,6.0,10.0,91,0.00,,---,0.00,VWS V14.01,2013-10-04 22:26:00,
2013-10-04 18:31:00,70.3,67.6,30.00,ENE,70,2.0,4.0,91,0.00,,---,0.00,VWS V14.01,2013-10-04 22:31:00,
2013-10-04 18:36:00,70.1,67.7,30.00,SSW,195,3.0,10.0,92,0.00,,---,0.00,VWS V14.01,2013-10-04 22:36:00,
2013-10-04 18:41:00,70.0,67.6,30.00,SW,217,5.0,10.0,92,0.00,,---,0.00,VWS V14.01,2013-10-04 22:41:00,
2013-10-04 18:46:00,69.9,67.5,30.00,SW,224,3.0,10.0,92,0.00,,---,0.00,VWS V14.01,2013-10-04 22:46:00,
2013-10-04 18:51:00,69.8,67.4,30.00,NE,54,3.0,10.0,92,0.00,,---,0.00,VWS V14.01,2013-10-04 22:51:00,
2013-10-04 18:56:00,69.7,67.3,30.00,West,264,4.0,10.0,92,0.00,,---,0.00,VWS V14.01,2013-10-04 22:56:00,
2013-10-04 19:01:00,69.6,67.5,30.00,WSW,255,4.0,6.0,93,0.00,,---,0.00,VWS V14.01,2013-10-04 23:01:00,
2013-10-04 19:06:00,69.6,67.5,30.00,West,269,5.0,8.0,93,0.00,,---,0.00,VWS V14.01,2013-10-04 23:06:00,
2013-10-04 19:11:00,69.5,67.4,30.00,WSW,250,6.0,9.0,93,0.00,,---,0.00,VWS V14.01,2013-10-04 23:11:00,
2013-10-04 19:16:00,69.5,67.4,30.00,WSW,250,5.0,9.0,93,0.00,,---,0.00,VWS V14.01,2013-10-04 23:16:00,
2013-10-04 19:21:00,69.5,67.4,30.00,NW,320,1.0,9.0,93,0.00,,---,0.00,VWS V14.01,2013-10-04 23:21:00,
2013-10-04 19:26:00,69.5,67.4,30.00,SSW,201,5.0,9.0,93,0.00,,---,0.00,VWS V14.01,2013-10-04 23:26:00,
2013-10-04 19:31:00,69.5,67.4,30.00,SW,222,3.0,6.0,93,0.00,,---,0.00,VWS V14.01,2013-10-04 23:31:00,
2013-10-04 19:36:00,69.5,67.4,30.00,East,91,2.0,10.0,93,0.00,,---,0.00,VWS V14.01,2013-10-04 23:36:00,
2013-10-04 19:41:00,69.5,67.4,30.00,SW,218,4.0,10.0,93,0.00,,---,0.00,VWS V14.01,2013-10-04 23:41:00,
2013-10-04 19:46:00,69.5,67.4,30.00,South,188,6.0,10.0,93,0.00,,---,0.00,VWS V14.01,2013-10-04 23:46:00,
2013-10-04 19:51:00,69.5,67.4,30.00,WNW,303,2.0,10.0,93,0.00,,---,0.00,VWS V14.01,2013-10-04 23:51:00,
2013-10-04 19:56:00,69.5,67.4,30.00,WSW,241,7.0,10.0,93,0.00,,---,0.00,VWS V14.01,2013-10-04 23:56:00,
2013-10-04 20:01:00,69.5,67.7,30.00,SSE,150,7.0,7.0,94,0.00,,---,0.00,VWS V14.01,2013-10-05 00:01:00,
2013-10-04 20:06:00,69.4,67.6,30.00,SW,221,5.0,9.0,94,0.00,,---,0.00,VWS V14.01,2013-10-05 00:06:00,
2013-10-04 20:11:00,69.3,67.5,30.00,SSE,156,2.0,9.0,94,0.00,,---,0.00,VWS V14.01,2013-10-05 00:11:00,
2013-10-04 20:16:00,69.2,67.4,30.00,South,186,6.0,9.0,94,0.00,,---,0.00,VWS V14.01,2013-10-05 00:16:00,
2013-10-04 20:21:00,69.2,67.4,30.01,SE,137,4.0,9.0,94,0.00,,---,0.00,VWS V14.01,2013-10-05 00:21:00,
2013-10-04 20:26:00,69.2,67.7,30.01,SSE,166,5.0,9.0,95,0.00,,---,0.00,VWS V14.01,2013-10-05 00:26:00,
2013-10-04 20:31:00,69.2,67.7,30.01,South,181,3.0,5.0,95,0.00,,---,0.00,VWS V14.01,2013-10-05 00:31:00,
2013-10-04 20:36:00,69.1,67.6,30.01,SSW,212,5.0,7.0,95,0.00,,---,0.00,VWS V14.01,2013-10-05 00:36:00,
2013-10-04 20:41:00,69.1,67.6,30.01,SW,225,2.0,7.0,95,0.00,,---,0.00,VWS V14.01,2013-10-05 00:41:00,
2013-10-04 20:46:00,69.2,67.7,30.01,SSE,165,2.0,9.0,95,0.00,,---,0.00,VWS V14.01,2013-10-05 00:46:00,
2013-10-04 20:51:00,69.3,67.8,30.01,East,98,9.0,10.0,95,0.00,,---,0.00,VWS V14.01,2013-10-05 00:51:00,
2013-10-04 20:56:00,69.3,67.8,30.01,NNW,343,1.0,10.0,95,0.00,,---,0.00,VWS V14.01,2013-10-05 00:56:00,
2013-10-04 21:01:00,69.4,67.9,30.01,SSW,196,1.0,4.0,95,0.00,,---,0.00,VWS V14.01,2013-10-05 01:01:00,
2013-10-04 21:06:00,69.5,67.7,30.01,SSW,207,7.0,10.0,94,0.00,,---,0.00,VWS V14.01,2013-10-05 01:06:00,
2013-10-04 21:11:00,69.5,67.7,30.01,South,175,5.0,10.0,94,0.00,,---,0.00,VWS V14.01,2013-10-05 01:11:00,
2013-10-04 21:16:00,69.5,67.7,30.02,NNE,18,1.0,10.0,94,0.00,,---,0.00,VWS V14.01,2013-10-05 01:16:00,
2013-10-04 21:21:00,69.5,67.7,30.02,SSE,159,5.0,10.0,94,0.00,,---,0.00,VWS V14.01,2013-10-05 01:21:00,
2013-10-04 21:26:00,69.4,67.6,30.02,SW,216,2.0,10.0,94,0.00,,---,0.00,VWS V14.01,2013-10-05 01:26:00,
2013-10-04 21:31:00,69.4,67.6,30.02,SSW,207,1.0,4.0,94,0.00,,---,0.00,VWS V14.01,2013-10-05 01:31:00,
2013-10-04 21:36:00,69.4,67.9,30.02,South,169,4.0,8.0,95,0.00,,---,0.00,VWS V14.01,2013-10-05 01:36:00,
2013-10-04 21:41:00,69.4,67.9,30.02,SW,225,4.0,8.0,95,0.00,,---,0.00,VWS V14.01,2013-10-05 01:41:00,
2013-10-04 21:46:00,69.3,67.8,30.02,East,79,4.0,8.0,95,0.00,,---,0.00,VWS V14.01,2013-10-05 01:46:00,
2013-10-04 21:51:00,69.3,67.8,30.02,SW,224,4.0,8.0,95,0.00,,---,0.00,VWS V14.01,2013-10-05 01:51:00,
2013-10-04 21:56:00,69.3,67.8,30.02,SE,140,5.0,8.0,95,0.00,,---,0.00,VWS V14.01,2013-10-05 01:56:00,
2013-10-04 22:02:00,69.2,67.7,30.02,SSW,200,1.0,4.0,95,0.00,,---,0.00,VWS V14.01,2013-10-05 02:02:00,
2013-10-04 22:07:00,69.3,67.8,30.02,SW,229,2.0,7.0,95,0.00,,---,0.00,VWS V14.01,2013-10-05 02:07:00,
2013-10-04 22:12:00,69.3,67.8,30.02,SE,144,1.0,9.0,95,0.00,,---,0.00,VWS V14.01,2013-10-05 02:12:00,
2013-10-04 22:17:00,69.3,67.8,30.02,SSW,193,1.0,9.0,95,0.00,,---,0.00,VWS V14.01,2013-10-05 02:17:00,
2013-10-04 22:22:00,69.3,67.5,30.02,SW,226,2.0,9.0,94,0.00,,---,0.00,VWS V14.01,2013-10-05 02:22:00,
2013-10-04 22:27:00,69.3,67.5,30.02,NW,323,1.0,9.0,94,0.00,,---,0.00,VWS V14.01,2013-10-05 02:27:00,
2013-10-04 22:32:00,69.4,67.6,30.02,South,188,2.0,4.0,94,0.00,,---,0.00,VWS V14.01,2013-10-05 02:32:00,
2013-10-04 22:37:00,69.5,67.7,30.02,SSW,199,2.0,5.0,94,0.00,,---,0.00,VWS V14.01,2013-10-05 02:37:00,
2013-10-04 22:42:00,69.6,67.5,30.02,SSW,193,5.0,6.0,93,0.00,,---,0.00,VWS V14.01,2013-10-05 02:42:00,
2013-10-04 22:47:00,69.7,67.6,30.02,SW,221,3.0,6.0,93,0.00,,---,0.00,VWS V14.01,2013-10-05 02:47:00,
2013-10-04 22:52:00,69.7,67.6,30.02,WSW,253,6.0,8.0,93,0.00,,---,0.00,VWS V14.01,2013-10-05 02:52:00,
2013-10-04 22:57:00,69.7,67.6,30.02,SW,224,1.0,9.0,93,0.00,,---,0.00,VWS V14.01,2013-10-05 02:57:00,
2013-10-04 23:02:00,69.7,67.9,30.02,SW,229,3.0,8.0,94,0.00,,---,0.00,VWS V14.01,2013-10-05 03:02:00,
2013-10-04 23:07:00,69.6,67.8,30.02,SSW,205,3.0,8.0,94,0.00,,---,0.00,VWS V14.01,2013-10-05 03:07:00,
2013-10-04 23:12:00,69.6,67.8,30.02,South,181,5.0,9.0,94,0.00,,---,0.00,VWS V14.01,2013-10-05 03:12:00,
2013-10-04 23:17:00,69.6,67.8,30.02,SSW,204,5.0,9.0,94,0.00,,---,0.00,VWS V14.01,2013-10-05 03:17:00,
2013-10-04 23:22:00,69.4,67.6,30.02,SSE,164,0.0,9.0,94,0.00,,---,0.00,VWS V14.01,2013-10-05 03:22:00,
2013-10-04 23:27:00,69.4,67.6,30.02,SSW,212,4.0,9.0,94,0.00,,---,0.00,VWS V14.01,2013-10-05 03:27:00,
2013-10-04 23:32:00,69.3,67.5,30.01,South,172,4.0,6.0,94,0.00,,---,0.00,VWS V14.01,2013-10-05 03:32:00,
2013-10-04 23:37:00,69.2,67.4,30.01,SSW,206,3.0,7.0,94,0.00,,---,0.00,VWS V14.01,2013-10-05 03:37:00,
2013-10-04 23:42:00,69.2,67.7,30.02,SSW,205,4.0,7.0,95,0.00,,---,0.00,VWS V14.01,2013-10-05 03:42:00,
2013-10-04 23:47:00,69.2,67.7,30.01,SSW,207,2.0,7.0,95,0.00,,---,0.00,VWS V14.01,2013-10-05 03:47:00,
2013-10-04 23:52:00,69.1,67.6,30.01,WSW,241,1.0,7.0,95,0.00,,---,0.00,VWS V14.01,2013-10-05 03:52:00,
2013-10-04 23:57:00,69.0,67.5,30.01,WSW,242,3.0,7.0,95,0.00,,---,0.00,VWS V14.01,2013-10-05 03:57:00,